GW0828 Weather Reports


Display with metric or nautical units.
time (UTC)temp
F
wind
direction
speed
MPH
gust
MPH
rain 1hr
in
rain 24hr
in
rain mn
in
humidity
%
barometer
mb
20260903161036 76 178 3.0 8.0 0.00 0.00 0.00 49 1016.9
20260903160535 76 108 3.0 9.0 0.00 0.00 0.00 49 1016.8
20260903160105 75 133 1.0 9.0 0.00 0.00 0.00 52 1016.7
20260903155538 75 125 1.0 6.0 0.00 0.00 0.00 52 1016.7
20260903155039 75 187 1.0 6.0 0.00 0.00 0.00 51 1016.9
20260903154559 74 242 1.0 5.0 0.00 0.00 0.00 56 1017.1
20260903154039 74 73 1.0 5.0 0.00 0.00 0.00 54 1017.0
20260903153534 74 204 2.0 7.0 0.00 0.00 0.00 52 1016.9
20260903153108 73 0 1.0 9.0 0.00 0.00 0.00 53 1016.8
20260903152535 73 113 2.0 9.0 0.00 0.00 0.00 51 1016.8
20260903152034 72 112 3.0 9.0 0.00 0.00 0.00 54 1016.7
20260903151608 72 192 2.0 6.0 0.00 0.00 0.00 56 1017.1
20260903151034 71 239 1.0 3.0 0.00 0.00 0.00 54 1017.1
20260903150535 71 0 0.0 5.0 0.00 0.00 0.00 57 1017.1
20260903150108 70 250 0.0 7.0 0.00 0.00 0.00 61 1017.1
20260903145537 69 79 1.0 7.0 0.00 0.00 0.00 60 1016.8
20260903145037 69 280 2.0 7.0 0.00 0.00 0.00 63 1017.1
20260903144601 67 102 2.0 8.0 0.00 0.00 0.00 65 1016.8
20260903144035 65 54 0.0 8.0 0.00 0.00 0.00 68 1017.0
20260903143534 64 227 3.0 7.0 0.00 0.00 0.00 72 1017.3
20260903143056 63 49 2.0 5.0 0.00 0.00 0.00 74 1016.9
20260903142535 62 0 0.0 6.0 0.00 0.00 0.00 74 1017.2
20260903142035 62 202 2.0 6.0 0.00 0.00 0.00 76 1016.9
20260903141556 61 244 2.0 6.0 0.00 0.00 0.00 77 1016.9
20260903141035 60 342 0.0 2.0 0.00 0.00 0.00 78 1016.8
20260903140536 60 0 0.0 7.0 0.00 0.00 0.00 79 1016.8
20260903140113 59 0 0.0 7.0 0.00 0.00 0.00 79 1016.8
20260903135534 59 253 2.0 10.0 0.00 0.00 0.00 80 1017.1
20260903135035 58 232 1.0 10.0 0.00 0.00 0.00 81 1017.1
20260903134600 58 0 1.0 7.0 0.00 0.00 0.00 82 1016.7
20260903134036 58 0 1.0 7.0 0.00 0.00 0.00 82 1017.0
20260903133539 58 244 2.0 7.0 0.00 0.00 0.00 82 1017.1
20260903133103 58 29 3.0 5.0 0.00 0.00 0.00 83 1016.6
20260903132534 57 16 1.0 5.0 0.00 0.00 0.00 85 1016.8
20260903132034 57 40 0.0 5.0 0.00 0.00 0.00 86 1016.7
20260903131608 56 187 1.0 5.0 0.00 0.00 0.00 86 1016.4
20260903131037 56 0 0.0 4.0 0.00 0.00 0.00 87 1016.4
20260903130539 55 241 1.0 4.0 0.00 0.00 0.00 87 1016.6
20260903130055 54 63 0.0 4.0 0.00 0.00 0.00 86 1016.2
20260903125537 54 233 1.0 4.0 0.00 0.00 0.00 86 1016.3
20260903125037 54 243 0.0 5.0 0.00 0.00 0.00 85 1016.3
20260903124600 54 0 0.0 5.0 0.00 0.00 0.00 85 1016.3
20260903124038 54 4 1.0 6.0 0.00 0.00 0.00 85 1016.3
20260903123537 54 18 1.0 6.0 0.00 0.00 0.00 84 1016.1
20260903123055 54 171 1.0 3.0 0.00 0.00 0.00 84 1015.9
20260903122537 54 231 0.0 3.0 0.00 0.00 0.00 84 1015.9
20260903122036 55 216 0.0 7.0 0.00 0.00 0.00 85 1015.9
20260903121555 55 0 0.0 7.0 0.00 0.00 0.00 85 1015.9
20260903121036 55 230 1.0 4.0 0.00 0.00 0.00 85 1015.9
20260903120536 55 31 0.0 3.0 0.00 0.00 0.00 85 1015.9
20260903120105 55 0 0.0 3.0 0.00 0.00 0.00 85 1016.0
20260903115537 55 46 1.0 5.0 0.00 0.00 0.00 85 1015.9
20260903115037 55 0 0.0 10.0 0.00 0.00 0.00 85 1015.9
20260903114603 55 73 4.0 10.0 0.00 0.00 0.00 85 1015.9
20260903114036 55 0 1.0 7.0 0.00 0.00 0.00 85 1015.9
20260903113536 56 0 1.0 7.0 0.00 0.00 0.00 84 1015.9
20260903113059 56 0 0.0 5.0 0.00 0.00 0.00 85 1015.9
20260903112537 56 264 2.0 5.0 0.00 0.00 0.00 85 1015.9
20260903112037 56 42 1.0 8.0 0.00 0.00 0.00 84 1015.7
20260903111557 56 2 3.0 8.0 0.00 0.00 0.00 84 1015.7
20260903111036 57 0 0.0 2.0 0.00 0.00 0.00 85 1015.7
20260903110536 57 342 0.0 2.0 0.00 0.00 0.00 84 1015.6
20260903110052 57 0 0.0 2.0 0.00 0.00 0.00 85 1015.8
20260903105536 57 0 0.0 2.0 0.00 0.00 0.00 85 1015.7
20260903105036 57 51 0.0 2.0 0.00 0.00 0.00 85 1015.7
20260903104601 57 51 0.0 2.0 0.00 0.00 0.00 85 1015.7
20260903104036 57 54 1.0 2.0 0.00 0.00 0.00 85 1015.7
20260903103535 57 54 0.0 4.0 0.00 0.00 0.00 85 1015.8
20260903103100 57 0 1.0 4.0 0.00 0.00 0.00 85 1015.8
20260903102537 57 0 1.0 4.0 0.00 0.00 0.00 85 1015.9
20260903102036 57 0 1.0 4.0 0.00 0.00 0.00 85 1016.0
20260903101601 57 0 0.0 2.0 0.00 0.00 0.00 84 1015.9
20260903101035 57 233 0.0 2.0 0.00 0.00 0.00 83 1015.9
20260903100536 57 0 0.0 3.0 0.00 0.00 0.00 83 1016.0
20260903100055 58 0 0.0 3.0 0.00 0.00 0.00 83 1016.1
20260903095534 58 242 0.0 6.0 0.00 0.00 0.00 84 1016.1
20260903095036 58 0 2.0 6.0 0.00 0.00 0.00 84 1016.0
20260903094647 58 342 1.0 3.0 0.00 0.00 0.00 85 1016.0
20260903094035 58 0 0.0 3.0 0.00 0.00 0.00 84 1016.0
20260903093538 58 13 1.0 3.0 0.00 0.00 0.00 85 1016.1
20260903093056 58 327 0.0 3.0 0.00 0.00 0.00 85 1016.0
20260903092542 58 327 0.0 3.0 0.00 0.00 0.00 85 1016.1
20260903092040 58 305 0.0 3.0 0.00 0.00 0.00 85 1016.3
20260903091549 58 347 1.0 6.0 0.00 0.00 0.00 85 1016.1
20260903091041 58 325 2.0 6.0 0.00 0.00 0.00 85 1016.3
20260903090539 59 256 0.0 4.0 0.00 0.00 0.00 85 1016.3
20260903090100 59 135 0.0 2.0 0.00 0.00 0.00 84 1016.0
20260903085539 59 0 0.0 0.0 0.00 0.00 0.00 84 1016.1
20260903085039 59 0 0.0 1.0 0.00 0.00 0.00 84 1016.1
20260903084559 59 0 0.0 2.0 0.00 0.00 0.00 84 1016.1
20260903084039 59 0 0.0 3.0 0.00 0.00 0.00 83 1016.0
20260903083539 59 233 0.0 3.0 0.00 0.00 0.00 83 1016.1
20260903083053 59 252 1.0 3.0 0.00 0.00 0.00 83 1016.1
20260903082539 59 0 0.0 1.0 0.00 0.00 0.00 82 1016.1
20260903082038 60 0 0.0 1.0 0.00 0.00 0.00 82 1016.1
20260903081551 60 0 0.0 3.0 0.00 0.00 0.00 81 1016.1
20260903081039 60 0 0.0 3.0 0.00 0.00 0.00 80 1016.1
20260903080538 60 2 1.0 3.0 0.00 0.00 0.00 80 1016.1
20260903080103 60 314 0.0 2.0 0.00 0.00 0.00 80 1016.1
20260903075538 60 0 0.0 1.0 0.00 0.00 0.00 79 1016.1
20260903075038 61 0 0.0 0.0 0.00 0.00 0.00 79 1016.1
20260903074605 61 0 0.0 1.0 0.00 0.00 0.00 78 1016.1
20260903074038 61 0 0.0 1.0 0.00 0.00 0.00 76 1016.1
20260903073542 61 0 0.0 1.0 0.00 0.00 0.00 76 1016.1
20260903073056 62 0 0.0 0.0 0.00 0.00 0.00 75 1016.1
20260903072538 62 0 0.0 0.0 0.00 0.00 0.00 74 1016.1
20260903072038 62 0 0.0 3.0 0.00 0.00 0.00 74 1016.1
20260903071552 62 0 0.0 3.0 0.00 0.00 0.00 74 1016.1
20260903071038 63 266 0.0 2.0 0.00 0.00 0.00 74 1016.1
20260903070538 63 296 0.0 2.0 0.00 0.00 0.00 74 1016.0
20260903070103 63 283 0.0 1.0 0.00 0.00 0.00 75 1016.1
20260903065539 63 0 0.0 2.0 0.00 0.00 0.00 75 1016.1
20260903065037 63 0 0.0 2.0 0.00 0.00 0.00 75 1016.1
20260903064606 63 0 0.0 2.0 0.00 0.00 0.00 74 1016.2
20260903064039 63 0 0.0 3.0 0.00 0.00 0.00 72 1016.1
20260903063539 64 0 0.0 3.0 0.00 0.00 0.00 73 1016.0
20260903063058 64 322 1.0 3.0 0.00 0.00 0.00 73 1016.0
20260903062538 64 339 1.0 5.0 0.00 0.00 0.00 72 1016.0
20260903062038 64 29 1.0 5.0 0.00 0.00 0.00 72 1016.1
20260903061553 64 315 2.0 5.0 0.00 0.00 0.00 72 1016.1
20260903061040 64 304 0.0 3.0 0.00 0.00 0.00 71 1016.0
20260903060538 64 336 0.0 2.0 0.00 0.00 0.00 71 1016.3
20260903060100 64 297 0.0 1.0 0.00 0.00 0.00 71 1016.2
20260903055538 64 0 0.0 1.0 0.00 0.00 0.00 70 1016.2
20260903055042 64 0 0.0 2.0 0.00 0.00 0.00 70 1016.3
20260903054613 64 0 0.0 2.0 0.00 0.00 0.00 70 1016.3
20260903054039 64 0 0.0 2.0 0.00 0.00 0.00 70 1016.4
20260903053538 64 0 0.0 2.0 0.00 0.00 0.00 70 1016.6
20260903053105 64 301 0.0 3.0 0.00 0.00 0.00 70 1016.6
20260903052541 64 284 0.0 3.0 0.00 0.00 0.00 70 1016.6
20260903052038 64 0 0.0 3.0 0.00 0.00 0.00 70 1016.6
20260903051559 65 252 1.0 3.0 0.00 0.00 0.00 70 1016.6
20260903051039 65 0 0.0 2.0 0.00 0.00 0.00 71 1016.7
20260903050538 65 0 0.0 3.0 0.00 0.00 0.00 72 1016.6
20260903050100 65 0 0.0 3.0 0.00 0.00 0.00 71 1016.8
20260903045539 65 115 1.0 3.0 0.00 0.00 0.00 73 1016.7
20260903045038 65 310 0.0 3.0 0.00 0.00 0.00 71 1016.5
20260903044602 65 0 0.0 2.0 0.00 0.00 0.00 69 1016.3
20260903044038 65 0 0.0 3.0 0.00 0.00 0.00 69 1016.4
20260903043539 65 0 1.0 3.0 0.00 0.00 0.00 68 1016.4
20260903043058 65 0 0.0 3.0 0.00 0.00 0.00 68 1016.5
20260903042542 65 97 0.0 2.0 0.00 0.00 0.00 69 1016.6
20260903042039 65 0 0.0 4.0 0.00 0.00 0.00 71 1016.6
20260903041610 65 96 0.0 4.0 0.00 0.00 0.00 72 1016.6
20260903041038 65 127 0.0 4.0 0.00 0.00 0.00 67 1016.8
20260903040538 65 215 0.0 3.0 0.00 0.00 0.00 68 1016.6
20260903040117 66 0 1.0 3.0 0.00 0.00 0.00 70 1016.4
20260903035542 66 129 0.0 1.0 0.00 0.00 0.00 68 1016.3
20260903035038 66 0 0.0 3.0 0.00 0.00 0.00 67 1016.2
20260903034603 67 0 0.0 3.0 0.00 0.00 0.00 65 1016.3
20260903034038 67 129 2.0 3.0 0.00 0.00 0.00 65 1016.3
20260903033537 67 129 0.0 4.0 0.00 0.00 0.00 64 1016.3
20260903033100 67 0 0.0 4.0 0.00 0.00 0.00 65 1016.1
20260903032538 67 83 2.0 5.0 0.00 0.00 0.00 68 1016.1
20260903032040 67 60 0.0 5.0 0.00 0.00 0.00 63 1016.3
20260903031600 67 318 1.0 6.0 0.00 0.00 0.00 64 1016.3
20260903031039 67 328 2.0 6.0 0.00 0.00 0.00 65 1016.2
20260903030539 67 0 0.0 6.0 0.00 0.00 0.00 65 1016.3
20260903030057 67 0 1.0 6.0 0.00 0.00 0.00 63 1016.1
20260903025539 68 6 3.0 6.0 0.00 0.00 0.00 63 1015.9
20260903025040 68 0 1.0 4.0 0.00 0.00 0.00 61 1016.0
20260903024607 68 342 1.0 3.0 0.00 0.00 0.00 61 1016.1
20260903024037 68 0 0.0 2.0 0.00 0.00 0.00 61 1016.3
20260903023538 69 0 0.0 3.0 0.00 0.00 0.00 60 1016.3
20260903023102 69 347 1.0 3.0 0.00 0.00 0.00 58 1016.2
20260903022541 69 0 0.0 3.0 0.00 0.00 0.00 57 1016.1
20260903022038 69 262 0.0 3.0 0.00 0.00 0.00 56 1016.2
20260903021600 69 0 0.0 3.0 0.00 0.00 0.00 55 1016.2
20260903021037 69 0 0.0 3.0 0.00 0.00 0.00 55 1016.2
20260903020538 69 38 0.0 3.0 0.00 0.00 0.00 57 1016.1
20260903020053 70 0 1.0 4.0 0.00 0.00 0.00 54 1016.1
20260903015538 70 347 2.0 4.0 0.00 0.00 0.00 53 1015.9
20260903015038 70 52 1.0 4.0 0.00 0.00 0.00 54 1015.9
20260903014601 70 0 0.0 4.0 0.00 0.00 0.00 53 1015.9
20260903014040 70 61 2.0 4.0 0.00 0.00 0.00 55 1015.9
20260903013538 71 28 0.0 7.0 0.00 0.00 0.00 53 1015.9
20260903013059 71 46 2.0 7.0 0.00 0.00 0.00 53 1015.8
20260903012534 71 29 3.0 8.0 0.00 0.00 0.00 52 1015.8
20260903012038 72 328 3.0 8.0 0.00 0.00 0.00 51 1015.9
20260903011558 72 12 3.0 5.0 0.00 0.00 0.00 51 1015.9
20260903011034 73 0 1.0 8.0 0.00 0.00 0.00 49 1015.9
20260903010534 73 13 3.0 10.0 0.00 0.00 0.00 48 1016.0
20260903010055 73 38 4.0 12.0 0.00 0.00 0.00 47 1016.0
20260903005538 73 41 6.0 12.0 0.00 0.00 0.00 48 1015.9
20260903005042 73 69 6.0 12.0 0.00 0.00 0.00 50 1015.7
20260903004558 73 23 6.0 12.0 0.00 0.00 0.00 52 1015.8
20260903004038 73 80 6.0 12.0 0.00 0.00 0.00 53 1015.9
20260903003537 74 60 4.0 11.0 0.00 0.00 0.00 51 1015.9
20260903003058 74 70 6.0 14.0 0.00 0.00 0.00 49 1016.0
20260903002538 74 17 5.0 14.0 0.00 0.00 0.00 48 1016.1
20260903002038 74 30 7.0 16.0 0.00 0.00 0.00 49 1016.3
20260903001605 75 12 8.0 16.0 0.00 0.00 0.00 48 1016.3
20260903001037 75 342 4.0 11.0 0.00 0.00 0.00 46 1016.2
20260903000540 76 289 2.0 11.0 0.00 0.00 0.00 45 1016.2
20260902235538 76 287 4.0 12.0 0.00 0.00 0.00 44 1016.1
20260902235038 76 239 5.0 15.0 0.00 0.00 0.00 44 1016.2
20260902234603 77 289 6.0 20.0 0.00 0.00 0.00 43 1016.2
20260902234038 77 329 8.0 24.0 0.00 0.00 0.00 41 1016.0
20260902233538 79 308 11.0 30.0 0.00 0.00 0.00 37 1016.2
20260902233058 80 287 11.0 30.0 0.00 0.00 0.00 35 1016.3
20260902232538 82 275 7.0 16.0 0.00 0.00 0.00 30 1016.5
20260902232038 83 285 3.0 7.0 0.00 0.00 0.00 32 1016.2
20260902231559 83 0 0.0 9.0 0.00 0.00 0.00 30 1015.5
20260902231038 84 150 3.0 9.0 0.00 0.00 0.00 30 1015.1
20260902230537 84 347 3.0 10.0 0.00 0.00 0.00 27 1015.0
20260902230114 84 215 3.0 10.0 0.00 0.00 0.00 26 1014.9
20260902225537 84 347 3.0 12.0 0.00 0.00 0.00 28 1014.8
20260902225039 84 347 3.0 12.0 0.00 0.00 0.00 27 1014.7
20260902224558 85 132 5.0 12.0 0.00 0.00 0.00 26 1014.6
20260902224038 85 160 4.0 11.0 0.00 0.00 0.00 25 1014.4
20260902223538 85 162 3.0 11.0 0.00 0.00 0.00 26 1014.4
20260902223056 85 126 5.0 11.0 0.00 0.00 0.00 27 1014.4
20260902222538 85 87 3.0 10.0 0.00 0.00 0.00 27 1014.4
20260902222048 85 123 2.0 13.0 0.00 0.00 0.00 26 1014.6
20260902221601 85 88 4.0 16.0 0.00 0.00 0.00 26 1014.5
20260902221037 85 52 6.0 16.0 0.00 0.00 0.00 27 1014.5
20260902220538 86 96 7.0 16.0 0.00 0.00 0.00 25 1014.6
20260902220057 86 95 4.0 14.0 0.00 0.00 0.00 28 1014.6
20260902215537 86 144 7.0 16.0 0.00 0.00 0.00 26 1014.8
20260902215039 86 94 6.0 16.0 0.00 0.00 0.00 24 1014.9
20260902214612 86 118 6.0 14.0 0.00 0.00 0.00 26 1015.0
20260902214038 86 62 5.0 11.0 0.00 0.00 0.00 28 1015.1
20260902213537 86 118 4.0 15.0 0.00 0.00 0.00 28 1015.1
20260902213056 87 131 7.0 15.0 0.00 0.00 0.00 28 1015.1
20260902212534 87 118 7.0 14.0 0.00 0.00 0.00 25 1015.2
20260902212038 87 101 5.0 14.0 0.00 0.00 0.00 26 1015.2
20260902211551 87 118 6.0 14.0 0.00 0.00 0.00 25 1015.4
20260902211038 87 121 5.0 14.0 0.00 0.00 0.00 25 1015.2
20260902210538 87 191 6.0 13.0 0.00 0.00 0.00 25 1015.3
20260902210116 87 115 4.0 14.0 0.00 0.00 0.00 25 1015.6
20260902205537 87 158 6.0 14.0 0.00 0.00 0.00 26 1015.7
20260902205038 87 165 6.0 14.0 0.00 0.00 0.00 25 1015.8
20260902204601 87 132 4.0 17.0 0.00 0.00 0.00 27 1015.7
20260902204038 87 125 6.0 17.0 0.00 0.00 0.00 25 1015.9
20260902203534 86 154 4.0 16.0 0.00 0.00 0.00 26 1015.9
20260902203100 86 119 6.0 16.0 0.00 0.00 0.00 25 1016.0
20260902202534 86 144 6.0 15.0 0.00 0.00 0.00 26 1016.1
20260902202039 86 177 6.0 13.0 0.00 0.00 0.00 26 1016.1
20260902201555 86 121 3.0 13.0 0.00 0.00 0.00 26 1016.1
20260902201041 86 142 6.0 13.0 0.00 0.00 0.00 26 1016.2
20260902200538 86 150 5.0 16.0 0.00 0.00 0.00 29 1016.2
20260902200111 86 187 4.0 16.0 0.00 0.00 0.00 25 1016.3
20260902195538 86 131 7.0 16.0 0.00 0.00 0.00 26 1016.4
20260902195038 86 122 4.0 14.0 0.00 0.00 0.00 29 1016.4
20260902194603 86 112 5.0 14.0 0.00 0.00 0.00 28 1016.5
20260902194035 86 150 4.0 14.0 0.00 0.00 0.00 26 1016.5
20260902193538 86 134 5.0 12.0 0.00 0.00 0.00 27 1016.6
20260902193057 86 162 6.0 12.0 0.00 0.00 0.00 25 1016.6
20260902192537 86 97 4.0 14.0 0.00 0.00 0.00 26 1016.7
20260902192037 86 81 3.0 14.0 0.00 0.00 0.00 27 1016.8
20260902191600 85 149 5.0 14.0 0.00 0.00 0.00 25 1016.8
20260902191037 85 77 4.0 15.0 0.00 0.00 0.00 29 1016.8
20260902190541 84 82 7.0 15.0 0.00 0.00 0.00 28 1017.0
20260902190125 85 121 5.0 14.0 0.00 0.00 0.00 27 1017.1
20260902185538 84 107 6.0 13.0 0.00 0.00 0.00 29 1017.2
20260902185037 85 123 6.0 13.0 0.00 0.00 0.00 30 1017.3
20260902184607 84 117 6.0 14.0 0.00 0.00 0.00 30 1017.3
20260902184038 84 104 5.0 14.0 0.00 0.00 0.00 32 1017.4
20260902183538 84 165 6.0 17.0 0.00 0.00 0.00 26 1017.5
20260902183057 84 134 7.0 17.0 0.00 0.00 0.00 28 1017.6
20260902182537 84 78 6.0 14.0 0.00 0.00 0.00 30 1017.7
20260902182037 84 176 3.0 14.0 0.00 0.00 0.00 31 1017.9
20260902181610 84 126 6.0 14.0 0.00 0.00 0.00 29 1017.9
20260902181037 83 108 4.0 14.0 0.00 0.00 0.00 30 1018.1
20260902180537 83 113 5.0 15.0 0.00 0.00 0.00 30 1018.1
20260902180054 83 133 5.0 15.0 0.00 0.00 0.00 31 1018.3
20260902175538 83 125 5.0 16.0 0.00 0.00 0.00 28 1018.3
20260902175040 83 98 5.0 16.0 0.00 0.00 0.00 29 1018.3
20260902174556 83 115 4.0 14.0 0.00 0.00 0.00 30 1018.4
20260902174037 83 153 5.0 14.0 0.00 0.00 0.00 28 1018.4
20260902173537 83 155 4.0 11.0 0.00 0.00 0.00 31 1018.4
20260902173059 82 112 3.0 12.0 0.00 0.00 0.00 30 1018.5
20260902172538 82 121 5.0 12.0 0.00 0.00 0.00 31 1018.6
20260902172038 83 131 5.0 12.0 0.00 0.00 0.00 31 1018.8
20260902171619 83 117 3.0 9.0 0.00 0.00 0.00 31 1018.7
20260902171037 82 140 3.0 11.0 0.00 0.00 0.00 33 1018.8
20260902170537 82 179 3.0 11.0 0.00 0.00 0.00 37 1018.8
20260902170056 82 141 5.0 11.0 0.00 0.00 0.00 33 1018.8
20260902165537 82 121 4.0 10.0 0.00 0.00 0.00 36 1018.9
20260902165037 81 118 2.0 8.0 0.00 0.00 0.00 34 1019.0
20260902164604 80 190 1.0 6.0 0.00 0.00 0.00 34 1018.9
20260902164035 79 151 0.0 5.0 0.00 0.00 0.00 36 1018.9
20260902163540 79 83 2.0 6.0 0.00 0.00 0.00 37 1019.0
20260902163059 78 160 2.0 6.0 0.00 0.00 0.00 39 1019.0
20260902162537 78 79 2.0 6.0 0.00 0.00 0.00 36 1019.1
20260902162041 78 164 3.0 7.0 0.00 0.00 0.00 39 1019.1
20260902161603 78 188 2.0 8.0 0.00 0.00 0.00 38 1019.1